Theta_e
322 326 327 326 333 339 339 338 338 337 334 336 339 339 339 339 337 337 337 337 336 334 334 333 334 334 331 331 331 328 330 331 329 331 333 333 332 329 326 327 326 326 325 324 324 324 325 324 324 323 322 322 322 323 324 325 325 324 324 324 325 325 325 325 324 324 325 326 326 326 325 324 323 323
323 327 329 326 327 331 333 332 334 332 325 328 336 338 339 338 338 338 337 337 336 335 335 333 334 334 331 330 329 328 329 330 329 330 332 333 332 328 326 327 327 326 325 324 324 324 325 324 324 323 322 321 322 323 324 325 326 326 325 325 324 324 324 324 324 324 325 326 327 327 327 327 326 325
322 323 326 324 323 325 326 328 330 327 321 324 331 335 338 337 337 338 338 338 337 335 335 335 334 332 331 330 330 330 330 329 329 330 331 331 328 326 326 327 327 326 325 324 324 324 325 325 324 322 321 320 320 322 323 324 325 325 325 325 324 324 323 323 323 324 324 326 327 328 328 327 326 326
323 321 321 320 319 320 321 323 325 324 319 321 325 330 333 334 335 337 338 338 339 338 336 336 335 333 332 330 328 332 334 330 328 330 329 329 327 327 330 331 327 326 325 324 324 324 325 325 324 323 321 320 319 319 321 322 323 323 323 323 322 322 322 323 323 324 324 325 326 327 328 327 326 325
323 322 321 320 318 319 319 319 321 322 319 320 322 324 328 332 334 335 337 339 339 339 337 334 335 334 332 331 328 330 335 333 330 330 329 328 328 329 333 333 330 327 325 325 324 324 325 325 324 322 320 319 318 318 319 319 320 320 320 320 320 320 321 321 322 323 324 325 325 326 327 327 327 326
324 322 321 321 318 318 320 319 320 322 321 320 321 322 325 332 336 334 334 338 340 339 337 335 336 333 329 332 332 330 334 335 333 332 331 330 330 330 332 332 332 330 326 325 325 324 325 325 323 322 320 318 318 317 318 318 318 318 319 319 319 319 320 320 320 321 323 324 325 325 326 326 326 326
324 322 321 321 320 319 320 319 320 322 322 321 321 323 323 328 337 336 332 335 339 340 339 337 338 336 331 332 333 330 331 333 333 332 333 332 331 331 330 329 331 330 327 325 325 325 325 325 322 321 319 318 317 317 318 319 320 320 320 320 320 320 319 319 319 320 321 322 324 325 324 324 324 324
326 324 323 322 321 320 319 319 321 320 322 322 320 322 322 322 332 337 333 330 333 338 340 339 338 337 335 333 333 331 331 332 331 332 332 331 331 331 330 330 331 330 327 325 325 325 324 323 321 319 318 317 318 318 319 320 321 321 321 321 320 319 319 318 319 320 320 321 322 322 322 321 321 320
329 329 328 325 322 321 320 320 321 320 321 321 320 322 323 321 323 331 333 329 329 333 337 339 338 335 333 332 331 330 331 333 333 332 331 331 331 330 330 332 334 331 328 327 325 324 322 321 319 318 318 318 318 318 320 320 321 321 320 319 319 318 318 318 318 319 319 320 320 320 319 319 318 318
332 332 332 331 328 323 321 320 321 321 320 321 322 321 322 322 321 325 329 329 328 330 333 337 338 334 332 333 333 330 329 331 334 336 336 334 332 332 331 333 334 332 331 330 327 324 322 321 320 319 319 320 320 319 320 320 320 319 318 318 318 318 318 318 318 318 318 319 319 319 319 318 318 318
333 333 333 334 331 327 323 321 320 321 321 320 321 321 321 321 321 322 326 328 329 331 333 335 336 337 335 334 335 334 330 329 332 335 336 337 337 337 335 332 331 331 330 330 328 326 324 322 323 323 322 323 322 320 319 319 318 318 318 318 318 318 318 318 318 318 318 318 319 318 318 318 318 318
333 333 333 333 333 328 324 323 322 320 321 320 321 321 321 321 321 323 327 329 331 334 337 337 337 339 337 335 336 335 331 329 331 333 334 336 336 336 336 333 330 328 326 325 327 328 326 326 327 326 324 324 323 321 320 320 320 321 321 320 318 318 318 318 318 319 319 319 319 319 318 318 318 318
333 334 334 333 333 330 326 324 324 322 320 320 321 321 321 321 321 322 326 330 334 337 338 339 338 338 338 337 337 337 333 332 335 336 336 334 333 333 334 333 331 328 324 324 326 327 325 326 327 325 325 325 324 322 322 322 323 323 322 320 318 317 318 318 318 318 318 318 318 318 318 318 318 318
335 335 335 334 333 332 330 326 326 326 322 320 321 321 321 321 321 321 324 328 334 338 339 339 338 338 339 338 338 339 338 337 338 338 336 334 333 332 332 333 333 330 325 325 327 325 323 324 324 322 323 325 324 323 323 323 322 321 318 314 313 315 316 317 317 318 318 318 318 318 318 318 318 318
336 336 335 336 335 335 333 331 330 330 328 323 322 321 320 319 320 321 322 326 333 338 339 339 339 338 338 339 339 339 339 338 338 338 337 334 333 333 333 334 333 330 325 325 325 322 322 323 321 320 323 324 324 323 322 319 316 312 308 307 307 308 309 310 311 312 313 313 313 314 315 315 315 314
337 337 337 337 337 336 335 334 333 333 332 329 327 326 322 319 318 320 322 325 332 337 338 338 338 338 338 338 339 338 337 338 338 337 336 333 330 331 332 331 331 330 327 324 323 322 323 323 322 322 323 323 322 322 320 315 309 305 303 304 304 304 304 305 306 307 308 308 309 310 310 310 310 310
339 338 337 337 338 338 337 336 335 336 335 334 334 334 332 327 322 319 319 321 328 334 338 338 338 337 337 336 337 337 335 336 336 336 336 334 332 330 329 328 328 327 324 322 322 322 322 322 322 321 321 320 319 320 319 313 306 303 302 303 303 304 305 306 308 310 311 312 313 314 314 314 313 313
341 339 338 337 338 337 338 338 338 337 337 338 338 339 340 337 332 326 321 319 321 327 334 338 337 335 333 333 334 334 333 333 334 334 335 336 333 330 327 324 322 320 320 322 322 322 321 321 320 319 319 319 318 318 316 310 303 302 303 303 303 304 305 308 310 313 314 316 316 316 316 316 316 316
342 341 340 339 338 337 338 338 339 340 339 339 340 341 342 342 341 338 332 325 320 320 326 331 333 333 331 332 333 331 331 333 332 332 332 331 328 324 321 321 320 322 324 324 321 321 321 320 319 318 318 318 317 315 313 310 305 303 303 303 303 303 304 305 307 309 311 313 315 315 315 315 315 315
341 343 342 342 341 339 338 337 339 340 341 341 342 343 343 344 343 342 340 334 325 320 323 329 332 334 334 333 333 331 332 333 332 330 328 325 322 321 320 322 325 325 325 323 322 322 321 319 318 318 317 317 315 313 312 313 311 306 303 303 302 302 302 303 304 304 305 307 309 310 311 312 312 313
341 343 343 343 343 342 340 339 339 340 342 343 343 344 345 345 344 342 342 339 329 322 324 328 331 333 334 333 332 333 333 333 332 329 326 324 324 326 325 326 325 323 322 322 321 320 319 317 316 317 315 314 314 313 314 315 314 310 308 307 305 304 303 303 302 303 304 305 306 307 309 310 311 312
340 343 343 343 344 344 342 341 341 341 343 344 344 346 347 347 345 343 342 341 333 324 325 329 330 332 334 333 333 334 334 333 331 326 324 325 326 326 326 325 324 322 321 321 320 319 318 316 315 315 314 313 313 314 314 314 314 314 313 312 310 309 307 304 303 303 303 304 306 308 310 312 313 313
340 342 343 343 342 345 345 343 343 344 344 345 346 347 348 347 346 344 343 342 337 328 326 330 331 332 334 335 335 335 333 332 329 323 321 323 324 323 323 322 322 322 322 321 320 318 316 315 314 313 313 313 313 314 314 314 314 314 314 314 313 312 310 308 307 307 306 306 306 307 309 311 312 313
339 342 345 345 342 343 346 345 344 344 345 346 347 348 348 347 346 345 343 342 339 332 327 328 330 332 334 335 335 334 333 330 326 321 319 321 321 321 321 321 321 321 322 321 319 317 315 314 313 312 313 313 313 314 314 314 313 313 314 314 314 314 313 311 311 311 311 311 310 310 310 311 311 312
338 340 345 345 343 341 344 345 346 345 346 347 348 348 348 347 346 345 342 341 339 333 330 331 333 335 336 335 334 333 331 327 323 319 319 320 320 320 321 321 321 321 321 319 317 315 314 313 312 312 312 312 313 313 312 312 312 313 313 313 313 313 313 312 312 313 313 313 314 314 314 313 312 311
339 338 342 344 343 341 341 344 345 345 346 348 348 348 348 347 345 344 342 340 337 334 333 335 336 336 335 335 333 331 328 325 321 320 320 320 320 320 321 320 320 320 319 318 316 314 313 312 311 311 312 312 313 312 312 312 313 313 312 312 312 312 312 312 313 314 314 314 315 315 315 313 312 313
339 337 339 343 343 340 339 343 344 345 347 349 349 349 349 347 345 344 341 338 336 335 336 336 335 335 335 333 331 328 325 323 322 322 322 321 319 319 319 318 318 317 317 317 314 313 313 310 307 308 311 313 313 312 312 312 312 312 312 312 311 311 312 313 314 314 315 315 316 316 315 315 315 315
341 338 339 343 343 340 337 341 344 346 348 349 349 349 348 346 345 342 338 337 336 336 336 335 335 335 334 332 329 325 323 324 323 321 321 320 319 318 318 317 316 316 316 315 314 312 311 308 306 307 310 311 312 312 312 312 312 312 312 311 311 312 313 314 315 315 315 315 316 316 316 316 316 316
348 345 342 344 344 341 338 341 344 347 348 349 349 349 347 346 344 339 336 337 337 336 335 335 335 334 333 329 327 323 322 323 322 320 320 319 318 318 317 316 316 316 315 314 312 310 308 306 304 304 306 308 310 312 312 312 312 311 311 311 311 313 314 315 315 315 315 315 315 316 316 316 316 316
352 351 349 347 346 341 338 341 345 348 349 350 350 349 347 344 341 337 335 336 337 336 335 335 335 334 331 328 325 322 321 321 320 319 318 319 319 318 318 317 317 317 316 315 312 310 309 307 304 302 303 306 309 311 311 311 311 310 310 311 312 313 315 315 315 315 315 315 315 315 314 315 315 315
353 353 352 350 348 344 341 345 347 349 350 350 349 347 346 343 340 337 335 336 336 336 335 334 334 332 329 325 323 322 320 319 319 319 318 319 321 320 319 319 318 318 317 315 313 311 309 306 304 302 302 304 306 308 309 310 310 310 311 312 313 315 316 315 314 315 315 315 314 314 313 313 314 314
354 353 353 352 350 348 347 348 349 350 351 349 348 347 344 341 338 337 336 336 336 335 335 334 333 330 327 324 322 321 319 320 320 319 319 320 322 321 320 319 319 318 317 315 313 312 310 306 303 301 301 302 303 303 305 307 310 311 311 312 313 314 315 314 314 314 314 314 314 313 313 313 313 313
354 353 353 352 351 350 349 350 351 351 349 347 346 346 342 338 336 336 337 336 335 333 334 333 331 328 326 323 321 320 320 321 322 321 319 319 320 319 319 319 319 318 317 315 313 312 311 309 305 301 301 302 303 303 304 307 310 311 311 312 313 314 314 314 313 313 313 314 313 313 312 313 312 312
353 353 353 352 351 350 350 350 351 350 348 346 345 343 340 337 337 337 336 335 332 331 332 332 329 328 326 322 320 321 322 323 324 323 319 318 318 318 318 319 318 317 316 314 311 311 311 309 306 304 304 307 308 308 308 310 312 312 312 312 312 313 313 313 313 313 313 313 312 313 313 313 312 312
351 352 352 351 351 350 350 351 351 349 347 346 344 342 339 337 337 336 335 333 331 331 332 331 329 328 325 322 321 323 324 324 325 323 321 319 318 318 318 319 318 317 315 313 311 310 309 308 307 308 309 311 312 311 311 311 313 313 312 312 312 313 312 312 313 313 313 313 313 313 312 312 311 311
349 349 351 352 351 350 350 351 350 348 347 345 344 341 338 336 336 336 334 332 331 332 332 330 328 326 323 322 323 324 324 324 324 324 322 320 319 319 318 318 317 316 314 312 310 310 309 308 308 309 310 310 311 311 312 312 312 311 311 312 313 313 312 313 313 312 312 312 312 311 310 310 309 309
347 346 348 350 350 350 351 351 349 347 346 345 343 341 339 337 337 335 332 331 332 332 331 329 327 324 323 324 325 324 324 324 324 323 322 320 319 319 318 317 316 314 313 311 310 309 309 308 309 309 309 310 310 310 311 311 311 310 310 310 311 312 313 313 313 313 312 312 311 309 308 308 307 305
345 343 345 347 349 349 349 350 348 346 344 344 342 340 338 337 336 334 332 331 331 331 330 328 326 323 323 324 325 325 324 324 323 322 322 320 319 318 318 317 315 313 312 311 310 309 309 309 310 310 310 310 310 310 310 310 309 309 308 308 309 312 314 314 313 313 312 311 310 308 306 305 304 303
343 342 344 347 348 347 347 348 347 345 344 342 341 339 338 337 335 333 331 331 330 330 329 328 325 324 324 325 325 325 324 323 323 322 321 319 318 318 317 316 314 313 312 311 310 310 309 309 310 311 310 310 310 310 308 306 305 305 307 310 312 313 313 313 313 312 311 310 309 307 305 304 303 304
341 342 345 347 348 347 346 347 346 344 342 340 339 339 337 335 333 332 331 330 330 330 329 327 325 324 325 325 325 325 324 323 323 321 320 319 317 317 316 314 313 312 311 310 309 309 309 310 311 310 308 306 304 303 303 304 306 308 311 313 313 312 312 312 311 310 309 308 308 307 306 305 305 306
342 343 344 345 346 346 345 345 344 343 341 339 337 337 336 333 332 332 331 329 329 329 328 326 325 325 325 325 325 324 323 323 322 320 319 318 317 315 314 312 311 311 310 309 309 308 309 310 309 305 301 300 302 304 307 309 311 312 312 312 312 311 311 311 310 308 307 306 306 307 306 305 305 306
343 345 345 345 345 345 345 345 343 342 341 339 337 336 334 332 332 332 330 328 328 328 327 326 325 325 325 325 325 324 322 321 320 319 318 317 315 314 311 310 310 310 309 309 309 309 309 308 305 302 302 305 308 310 311 312 311 311 311 311 312 311 311 311 311 309 307 305 305 306 305 304 305 306
343 344 343 343 342 342 342 342 341 340 339 337 336 335 333 332 332 331 329 328 328 328 327 327 326 325 325 325 324 322 321 320 319 318 317 315 314 313 312 310 310 310 310 310 309 308 308 307 306 305 308 310 310 310 310 310 310 310 310 311 312 312 312 312 312 310 307 306 305 305 305 304 304 305
341 341 340 340 340 339 339 339 338 338 337 335 335 334 333 332 332 330 328 328 328 327 327 327 326 325 325 324 322 321 319 319 318 317 316 314 313 313 312 312 311 311 310 309 308 308 308 308 308 308 309 309 310 310 310 310 310 310 310 311 312 313 313 312 310 309 307 306 305 305 304 303 303 304
340 340 340 339 337 337 338 338 337 336 335 334 333 333 333 332 330 328 327 327 327 326 326 327 325 324 323 322 320 319 318 317 316 316 315 314 313 312 311 311 311 310 310 309 308 308 308 308 308 308 309 309 310 309 309 309 310 311 311 312 313 312 312 311 309 307 306 305 304 304 304 303 303 304
Wind_Speed
14 13 14 14 13 12 12 11 10 10 10 9 8 8 8 7 6 5 5 5 5 5 5 6 7 8 7 6 7 6 7 8 7 7 7 7 8 9 8 7 7 8 9 11 12 12 12 14 15 16 16 16 16 17 17 19 20 21 22 22 23 23 23 23 23 22 21 21 20 20 19 19 19 20
15 15 15 15 15 14 14 12 12 12 11 10 10 10 10 10 8 7 6 6 6 6 6 5 6 9 8 6 6 7 7 7 6 7 7 7 8 8 7 8 9 9 11 12 13 14 14 15 16 16 16 15 15 16 16 17 18 19 21 22 23 23 24 25 25 24 23 22 21 20 20 19 19 19
17 17 17 17 16 15 14 13 13 12 11 11 11 11 11 11 11 10 8 7 7 7 6 6 7 7 7 6 6 6 7 7 7 8 8 8 9 8 9 10 10 10 12 13 14 15 16 17 18 18 17 16 16 15 16 16 17 18 19 20 22 23 24 25 25 26 25 24 23 22 21 21 20 20
20 19 19 19 18 17 15 14 14 13 11 11 12 12 13 13 12 11 10 9 8 7 7 7 7 7 7 7 7 7 8 8 7 8 9 9 9 9 9 11 11 11 12 15 16 17 18 18 19 18 18 17 17 16 17 18 18 19 20 21 21 22 23 24 25 26 26 25 24 23 23 22 22 22
22 21 20 20 19 18 17 16 15 14 13 12 12 13 13 13 13 13 12 10 9 8 8 7 7 8 7 7 8 7 9 9 7 8 9 10 10 9 7 10 13 13 13 15 17 19 20 20 19 18 18 18 18 18 18 19 20 20 21 21 21 22 23 24 25 26 26 26 26 25 25 25 25 24
24 23 22 21 21 20 20 18 17 16 15 13 13 13 13 13 14 13 12 11 10 9 9 8 8 9 8 7 9 8 9 9 8 8 9 9 10 10 9 9 13 15 15 17 19 20 20 19 19 18 18 18 18 19 19 20 20 20 21 21 21 21 21 22 23 25 26 27 27 27 27 28 28 27
25 25 24 23 23 23 22 21 20 18 17 16 14 14 14 13 14 14 13 12 10 10 9 8 8 8 7 8 9 9 9 10 9 8 9 10 10 11 11 11 13 16 17 18 20 21 20 19 19 18 18 19 20 20 19 19 19 19 19 19 20 20 21 21 22 23 24 26 27 27 27 27 28 28
27 27 26 25 25 25 24 24 23 21 20 18 16 15 15 15 14 14 14 13 11 10 10 9 8 8 8 8 9 9 9 9 9 10 11 12 11 12 13 12 14 16 18 19 20 20 19 19 19 19 20 21 21 21 20 19 19 19 20 20 20 21 21 22 22 22 23 24 26 26 26 26 26 27
29 28 27 27 27 27 26 26 25 24 22 21 19 17 17 16 15 15 15 14 12 11 10 9 9 9 9 9 9 9 9 9 10 11 12 12 13 13 12 11 13 17 19 19 20 19 18 19 20 20 21 23 23 22 22 21 22 22 21 21 20 20 20 21 22 22 22 23 24 25 26 25 25 25
31 30 29 28 29 29 28 27 27 26 25 23 21 19 18 17 16 16 16 15 14 13 12 11 10 10 9 9 9 10 10 10 11 10 11 12 13 13 13 11 12 14 16 17 19 18 18 20 22 22 22 22 22 23 23 24 24 23 21 19 18 18 18 19 20 21 22 22 22 23 24 25 24 24
32 31 30 30 30 31 30 28 28 28 27 25 23 21 20 18 17 17 16 16 16 14 13 12 12 11 10 10 10 11 12 12 12 12 11 10 10 11 13 14 15 14 15 16 16 16 18 19 20 22 22 21 21 22 23 23 23 21 18 17 16 16 17 18 19 20 21 21 22 22 22 23 23 23
33 32 31 31 32 32 31 29 29 28 28 27 25 24 22 20 19 18 17 18 17 15 14 14 13 12 12 11 11 12 13 14 14 14 12 11 10 11 12 15 18 18 17 16 13 13 17 17 17 20 21 20 21 21 20 19 18 17 16 16 17 18 18 19 19 20 21 21 22 21 21 22 23 23
35 34 33 33 33 33 32 30 29 28 29 28 26 25 24 23 21 20 19 19 17 16 15 15 15 14 13 13 13 13 14 14 13 12 13 13 12 12 13 13 16 18 18 16 12 13 17 17 17 19 18 17 18 18 17 17 15 15 18 20 21 20 20 20 20 21 21 22 22 22 22 22 22 23
37 36 35 35 34 34 33 30 29 28 28 28 26 25 25 24 23 22 21 20 19 17 17 16 15 15 14 14 14 13 13 13 12 12 13 13 12 12 13 11 11 15 17 15 14 17 19 18 18 18 16 15 14 13 13 15 16 19 23 23 23 23 22 22 22 23 23 23 24 24 24 24 24 24
38 37 37 36 35 35 34 32 30 29 29 28 26 25 25 25 25 24 23 22 21 19 18 16 15 15 15 14 13 13 13 11 12 12 12 12 11 11 11 9 9 14 17 15 16 19 18 17 18 17 15 14 12 11 14 18 20 21 22 23 23 24 24 24 24 24 24 24 24 25 25 26 26 26
39 38 37 37 37 37 35 33 32 31 31 30 28 26 25 26 26 26 25 24 22 21 19 17 16 16 15 15 14 14 12 11 12 12 12 13 13 11 11 10 9 12 14 14 16 16 14 13 15 14 12 13 12 13 18 22 22 20 20 20 20 20 20 20 19 19 18 18 18 19 19 20 21 22
40 39 38 38 38 38 35 34 34 33 32 31 29 26 25 26 26 27 27 26 24 22 20 18 18 17 16 16 15 14 14 14 13 12 12 12 12 12 11 11 10 13 16 15 13 12 11 10 11 12 12 13 13 14 18 22 20 18 17 15 14 14 15 14 14 14 14 14 15 15 15 16 17 18
41 40 39 39 39 38 37 35 35 35 34 32 30 28 27 27 27 28 28 28 27 25 23 20 19 19 18 17 17 17 16 16 15 13 12 11 11 11 11 12 14 15 14 12 10 10 9 9 11 13 12 13 14 14 17 20 17 14 13 13 12 12 12 13 14 15 15 16 16 16 17 18 18 19
42 41 40 40 38 38 37 36 35 35 34 33 32 30 28 27 28 28 29 29 28 28 27 24 21 20 19 17 18 19 17 16 16 15 14 13 12 12 13 13 14 11 9 10 10 9 8 8 11 13 13 13 14 14 16 18 15 13 13 14 13 13 13 14 14 15 16 17 18 18 19 20 21 21
44 43 42 41 39 38 38 37 36 35 34 33 32 30 28 27 27 28 29 28 28 28 28 27 23 21 20 19 19 19 17 16 16 16 15 14 13 12 11 9 7 5 8 10 9 7 7 10 12 14 14 14 15 15 14 14 15 16 16 15 14 13 13 13 14 15 16 17 19 20 21 21 22 22
45 44 44 43 41 40 40 39 37 35 33 33 32 29 27 27 25 25 26 26 27 28 28 27 25 22 22 21 19 18 17 17 16 15 12 11 9 8 7 6 5 6 6 7 7 7 9 11 11 14 16 16 15 14 12 11 14 18 18 17 17 16 14 13 13 13 14 14 16 17 18 19 19 20
47 44 44 45 43 41 42 41 37 35 34 33 32 29 24 23 21 20 20 22 25 28 29 27 25 24 23 22 20 19 18 17 17 15 12 9 8 8 7 6 6 7 7 9 12 10 10 11 11 12 15 16 14 11 11 12 14 15 16 16 17 17 18 17 15 13 13 13 13 13 14 16 18 19
48 45 43 45 45 42 42 42 39 36 35 33 32 27 22 22 22 19 20 21 22 27 30 28 26 25 24 22 22 20 18 18 17 15 12 10 9 9 8 6 6 7 6 10 14 13 11 11 11 11 12 15 14 12 11 12 13 14 14 15 14 15 18 19 18 16 16 15 15 15 15 16 18 20
49 44 39 41 45 44 43 43 40 37 35 33 31 27 22 23 22 20 22 23 20 23 29 29 26 26 25 23 22 20 18 18 17 15 13 10 9 9 7 6 7 6 6 10 14 14 12 11 10 10 11 14 15 14 13 13 14 14 13 13 13 14 15 16 16 16 17 17 18 18 17 17 18 18
50 47 40 38 42 44 44 43 41 39 36 32 31 29 25 22 20 20 24 25 20 21 26 26 23 22 22 22 21 20 19 18 17 15 12 10 9 8 6 6 7 6 7 12 16 15 14 11 9 9 11 13 15 16 16 16 14 12 12 12 13 14 15 15 14 14 15 16 17 18 19 20 20 19
50 51 45 39 40 43 44 44 42 40 36 32 31 31 28 25 24 24 25 23 19 18 22 21 19 18 17 17 19 20 19 18 16 14 11 9 9 8 8 9 9 8 9 13 15 15 14 12 9 9 11 13 16 17 18 16 13 12 12 12 12 13 14 14 13 14 14 15 15 17 19 21 22 22
49 51 47 41 40 42 43 43 42 39 35 32 31 31 29 28 27 27 25 21 17 18 21 21 20 19 16 16 20 20 18 16 15 13 12 10 10 9 10 10 10 9 9 12 14 15 14 12 10 10 11 13 17 18 17 16 14 14 14 13 12 12 12 12 13 14 14 15 16 17 19 21 21 22
48 49 47 43 41 40 41 41 41 38 35 33 31 30 30 29 28 27 26 22 18 21 24 23 22 20 17 19 22 21 17 17 16 14 13 12 11 10 10 10 10 10 11 12 13 13 13 12 10 9 11 14 16 18 17 17 16 15 14 14 13 12 12 12 13 13 14 16 17 18 19 19 20 21
43 44 44 43 40 38 38 39 39 37 35 33 32 31 30 29 28 28 27 22 20 24 27 25 22 19 19 21 22 21 19 19 17 15 13 12 11 10 10 11 11 11 11 11 11 12 12 11 10 10 12 14 16 17 17 17 17 16 15 14 14 13 12 11 12 13 15 16 17 18 19 20 21 21
40 39 39 40 38 37 38 39 39 37 36 35 34 33 31 28 28 30 30 26 24 27 27 23 20 19 19 22 23 22 22 20 17 15 13 12 11 10 10 10 10 10 9 9 9 9 9 10 10 11 14 15 15 16 17 17 18 17 15 14 14 13 11 11 13 14 15 16 18 19 20 21 22 22
43 40 39 38 37 35 36 36 36 36 36 36 36 35 33 32 33 34 33 30 27 26 23 19 18 18 20 23 24 24 21 19 17 15 12 11 10 10 10 10 9 8 8 8 7 8 10 10 10 12 14 15 16 17 17 17 17 16 15 14 13 13 12 13 14 14 15 17 20 21 22 22 22 22
49 46 43 41 39 37 35 35 37 37 37 38 38 37 36 36 37 35 32 30 27 24 21 19 19 20 24 26 26 23 20 18 17 15 13 12 12 11 11 11 10 8 8 7 7 9 11 12 12 13 14 15 16 17 16 16 15 15 14 14 13 13 13 14 14 15 16 19 21 23 23 22 21 22
53 51 49 46 44 43 42 41 41 40 39 39 39 38 38 39 38 34 33 33 29 25 22 22 23 25 28 28 25 22 20 19 17 15 15 15 13 13 13 12 11 9 8 7 7 8 10 11 13 14 15 16 16 14 12 12 13 13 12 13 13 14 13 13 15 16 17 19 22 23 24 23 22 23
56 55 55 52 50 49 48 47 44 43 43 44 43 41 42 41 38 36 36 36 32 28 25 25 27 30 30 28 25 22 20 19 17 16 17 17 15 14 14 13 12 10 9 8 7 7 9 11 12 14 15 16 17 16 12 10 11 11 12 12 13 14 14 14 15 16 18 19 21 22 24 24 24 23
58 58 59 58 55 53 52 51 48 46 47 47 45 44 45 43 40 39 39 37 33 30 27 25 28 31 30 27 25 22 19 18 16 16 18 19 16 15 14 13 12 10 9 8 7 7 9 10 10 11 12 13 16 17 15 11 8 9 11 13 14 14 15 16 16 17 18 19 19 21 24 26 25 24
61 61 61 61 58 56 55 54 51 50 50 49 46 47 48 46 43 43 41 37 33 30 27 26 28 31 29 26 23 22 19 17 16 17 19 18 16 14 14 13 13 11 10 9 8 7 8 9 8 9 11 11 13 13 12 10 10 10 11 13 14 15 16 16 17 17 18 18 19 21 24 26 27 27
63 59 60 61 60 58 57 56 53 53 53 51 49 49 48 46 45 44 40 36 32 28 26 29 31 31 28 25 22 20 19 17 17 18 18 16 14 14 14 13 13 12 10 8 8 8 8 9 8 9 10 11 12 12 9 9 12 14 14 15 16 16 16 17 17 17 17 18 20 22 24 26 29 30
63 58 57 59 59 57 57 56 55 56 55 52 51 51 48 45 46 43 39 37 33 27 27 31 32 29 27 24 21 19 18 17 18 19 17 15 14 14 14 13 13 11 9 8 8 8 9 9 9 9 9 10 12 12 10 11 13 15 16 17 17 15 15 17 18 18 19 20 21 23 25 27 30 31
63 60 60 59 59 57 56 55 56 58 57 54 53 52 49 48 46 42 39 38 32 27 30 33 30 27 26 24 21 19 18 18 20 19 17 16 15 14 14 14 12 11 10 9 8 8 9 10 10 10 10 11 12 13 14 15 16 16 15 15 14 13 15 16 18 20 21 21 23 25 27 28 28 29
64 63 63 63 62 60 58 58 59 58 55 54 53 50 49 49 47 43 41 38 31 29 33 33 28 26 26 23 20 19 18 19 20 19 16 16 15 14 14 13 12 12 10 9 9 9 9 10 12 12 12 13 14 14 15 16 16 15 13 13 14 16 17 18 19 21 22 23 24 25 26 26 26 26
64 65 66 65 64 63 62 61 60 55 52 51 50 49 48 48 44 40 39 37 34 34 35 31 27 27 25 21 19 19 19 20 20 18 16 16 15 15 16 15 13 12 11 9 9 9 9 11 15 15 14 13 13 12 12 13 13 12 12 13 15 18 19 20 21 23 24 25 24 24 24 24 26 27
67 68 68 67 65 65 65 63 57 51 49 49 49 48 48 46 40 35 34 35 37 38 33 28 28 28 24 19 19 20 19 20 19 17 16 16 14 16 18 17 14 12 11 10 9 9 10 13 15 14 12 10 10 11 12 12 12 12 13 13 14 16 19 21 22 23 25 26 24 22 23 24 25 27
68 66 65 65 64 63 61 58 54 50 48 49 49 48 46 42 38 35 34 35 38 37 30 26 27 26 22 19 21 21 20 19 18 17 17 16 15 15 16 15 13 12 11 9 9 9 10 12 12 11 10 10 11 12 13 13 12 12 13 13 13 15 17 18 20 23 25 25 23 22 23 23 24 27
64 62 60 60 59 55 52 50 49 48 48 49 48 46 43 40 38 38 37 37 38 35 28 25 25 24 21 21 22 21 19 18 17 17 17 16 15 15 14 13 12 12 11 9 9 9 9 10 10 10 11 12 12 13 13 13 12 12 13 13 14 14 15 15 17 20 21 21 21 22 23 25 27 29
59 59 59 56 53 48 46 45 46 46 47 47 45 43 40 39 39 39 38 37 35 32 28 24 23 23 22 22 22 21 19 19 18 17 16 15 15 15 15 14 13 12 10 10 9 9 9 10 10 11 12 12 12 13 13 13 12 12 12 13 13 14 14 15 17 19 19 18 19 20 23 26 28 29
Wind_Direction
224 222 227 225 213 209 210 206 206 210 210 206 205 205 205 211 213 205 204 207 209 213 217 226 246 260 263 263 267 261 248 248 244 232 237 248 253 253 256 267 278 290 306 318 321 320 318 316 315 314 310 305 299 294 292 291 291 292 293 295 296 297 297 297 296 295 293 291 290 286 283 281 280 279
224 220 223 227 222 218 219 213 211 215 212 207 207 207 207 210 211 213 214 208 206 211 211 219 254 270 267 259 264 262 251 244 239 240 241 241 248 257 264 270 278 292 308 318 320 319 318 316 316 313 309 304 298 294 291 289 288 289 290 291 293 294 294 295 295 295 294 292 290 289 286 283 281 279
225 221 222 227 224 222 222 217 215 220 215 208 207 207 210 214 213 215 219 220 217 212 211 220 242 260 257 247 246 247 250 247 238 241 243 241 251 266 274 277 284 296 309 316 317 318 318 318 316 313 310 307 303 300 296 293 291 289 288 287 288 289 290 291 292 293 293 291 290 288 287 286 285 283
226 223 222 226 226 224 224 220 220 225 223 215 211 210 213 218 219 218 219 227 229 219 218 226 236 245 244 244 244 232 236 248 241 239 245 247 257 269 273 280 288 298 308 312 315 317 318 318 316 313 311 309 307 305 302 299 297 293 291 290 288 288 288 289 289 290 291 290 289 287 285 285 284 284
229 225 223 225 226 225 225 225 224 227 230 226 221 219 218 218 221 222 220 226 232 228 225 225 225 232 235 243 250 232 227 246 246 239 248 254 261 264 261 275 289 298 310 313 314 318 319 317 315 312 311 310 308 306 302 299 296 294 292 291 289 289 288 288 288 288 288 288 287 286 285 284 283 283
231 228 225 224 226 225 226 228 227 228 232 232 229 228 225 218 219 226 224 222 227 230 231 227 223 235 237 232 243 238 223 234 239 235 247 256 261 264 262 271 284 294 307 314 314 318 318 316 313 310 308 308 304 302 299 296 294 292 291 290 289 288 286 286 286 286 286 285 285 284 284 283 283 282
231 231 228 226 227 226 227 229 229 229 232 234 233 232 232 224 219 228 232 225 222 224 229 225 217 231 238 227 238 242 227 230 241 241 249 258 263 266 273 280 282 290 307 316 316 319 318 315 312 309 306 305 302 299 297 295 293 289 288 287 287 287 286 285 283 282 282 283 283 283 283 282 282 282
232 233 231 229 229 228 228 229 230 231 232 235 235 234 237 234 223 226 236 237 230 226 228 227 215 217 229 232 239 245 239 240 247 249 254 263 266 268 278 287 287 294 308 314 314 316 315 310 308 306 305 304 302 301 299 297 294 291 289 288 286 286 284 282 281 279 278 278 280 282 282 282 281 281
234 235 235 234 233 232 230 229 230 232 233 235 236 235 238 240 233 229 237 244 242 236 232 231 226 225 231 239 244 247 246 245 249 253 254 259 265 269 277 283 284 296 308 312 313 316 314 310 308 306 305 303 303 304 302 300 297 295 294 292 289 286 282 279 278 278 277 276 276 278 281 283 283 281
234 236 237 237 237 236 234 232 232 233 233 234 236 236 237 240 240 236 238 244 247 246 240 233 234 237 237 238 243 248 247 243 243 245 248 257 266 273 281 285 287 296 304 307 312 316 315 310 307 306 306 303 302 304 303 301 300 299 297 294 292 288 284 280 278 278 278 277 277 277 278 281 283 283
235 235 236 238 239 238 236 235 234 234 235 235 235 236 237 238 240 238 239 243 246 247 243 236 235 236 235 234 235 243 248 244 241 243 245 253 261 268 282 292 296 297 297 300 306 310 309 306 304 306 307 303 301 303 301 298 300 301 299 296 294 291 288 284 282 280 280 280 280 279 279 280 282 283
235 235 235 236 238 239 237 236 235 236 237 237 235 235 235 236 237 235 234 239 243 240 237 236 234 231 234 236 231 235 245 246 246 250 248 247 254 266 281 293 298 301 304 304 305 303 303 306 305 304 305 304 303 305 305 307 308 305 300 299 298 295 291 287 284 283 283 283 283 282 281 281 281 282
235 235 235 236 237 239 238 236 236 237 239 240 238 237 235 234 235 233 231 233 236 234 231 232 234 231 231 234 229 231 241 244 243 244 246 255 268 275 281 289 295 301 308 308 303 299 300 302 301 301 303 303 303 309 314 315 309 298 295 298 299 296 292 288 285 284 283 284 284 284 283 282 281 281
234 234 235 237 238 240 240 238 237 236 240 241 239 239 238 235 235 234 231 230 230 229 228 229 233 232 231 233 230 228 234 236 233 234 246 261 272 275 281 286 285 294 304 303 294 297 301 301 302 305 306 302 302 307 304 292 283 284 291 295 295 292 289 286 284 284 283 283 283 283 282 281 280 279
235 235 235 236 239 240 240 239 238 236 238 240 238 237 238 236 236 235 233 231 228 227 227 228 231 232 234 234 229 227 232 232 229 232 245 261 267 269 275 276 271 286 296 294 290 298 304 305 308 311 309 304 305 300 286 282 287 293 295 295 293 291 290 288 287 286 285 284 283 282 281 280 280 279
237 236 235 236 238 240 239 238 238 237 237 239 238 237 237 237 237 236 235 232 228 227 228 228 228 231 234 233 230 232 234 227 227 236 246 261 269 268 268 270 271 279 287 288 292 301 306 304 306 309 306 302 302 292 287 294 305 307 303 301 299 297 296 295 295 294 293 291 289 286 284 283 282 283
239 238 237 237 237 239 238 237 238 238 237 238 238 237 237 237 237 237 237 234 229 228 228 228 228 230 234 236 235 238 237 232 237 244 247 255 263 265 269 272 270 277 285 288 292 298 303 302 300 300 300 298 296 292 293 302 310 310 308 308 307 306 305 305 307 307 305 302 300 297 294 292 291 290
240 240 239 238 238 239 238 237 237 239 238 238 239 237 236 237 238 240 240 237 231 227 226 227 229 233 240 242 240 243 248 250 249 246 240 242 250 261 272 280 287 295 294 288 290 297 301 303 299 299 300 297 295 295 295 302 311 315 315 317 315 311 308 305 303 302 300 300 298 297 296 295 295 294
240 241 240 240 239 239 239 237 237 239 240 239 239 239 239 240 241 243 243 240 236 231 227 228 231 235 241 241 240 245 254 256 253 249 246 246 255 269 279 289 303 308 285 273 287 294 296 303 304 302 302 298 296 296 297 302 312 322 325 322 316 310 305 299 295 290 288 287 287 288 289 290 291 292
240 240 240 240 239 239 239 238 237 238 241 241 241 241 241 241 242 245 247 245 240 234 228 226 228 231 235 234 238 247 252 253 254 255 254 257 265 276 284 291 297 280 260 272 284 285 294 310 309 304 304 300 297 300 303 301 304 315 327 329 323 318 313 305 298 292 287 284 282 282 283 284 287 290
239 239 238 238 238 238 238 237 236 237 238 240 241 241 240 239 237 239 244 244 238 230 226 224 224 226 231 235 241 247 249 251 255 254 251 257 260 261 270 276 262 254 263 266 262 274 303 313 309 304 304 304 302 303 303 294 295 309 326 333 330 328 327 319 309 300 292 289 287 286 286 287 290 293
238 238 237 236 236 236 237 236 235 235 235 237 239 238 234 231 228 225 231 237 233 225 222 222 223 225 230 236 242 246 246 248 250 247 241 239 234 233 245 253 252 262 265 250 252 278 311 315 310 306 305 307 307 300 294 293 297 308 318 322 322 325 327 327 324 314 304 298 294 292 292 294 296 298
237 237 238 236 234 234 236 237 234 233 233 233 235 233 226 223 224 218 218 226 227 222 218 218 221 224 228 234 238 242 243 243 244 242 237 230 226 232 240 243 250 265 268 255 264 289 314 314 309 309 306 307 305 299 297 299 302 306 308 311 317 320 322 326 328 325 319 314 308 302 296 294 294 296
236 236 236 237 235 233 234 236 234 230 230 230 232 230 222 221 222 218 218 223 223 219 218 218 221 224 227 233 237 237 237 239 239 238 236 232 232 236 236 236 248 259 255 254 270 294 311 308 304 305 302 300 298 300 302 301 303 307 308 312 317 316 317 322 323 321 318 316 317 317 313 305 298 296
236 236 235 236 236 233 232 233 232 228 226 227 230 229 226 223 218 213 217 223 222 217 217 218 218 219 222 227 230 231 233 235 235 236 236 232 233 236 231 229 241 252 253 256 270 294 307 304 301 302 299 296 295 298 302 303 305 308 308 312 314 313 317 321 319 317 315 313 315 316 311 307 303 301
235 236 236 236 236 234 231 230 229 227 224 224 227 229 230 228 220 213 212 216 215 210 210 212 210 209 212 214 217 222 227 228 228 230 230 227 225 224 223 233 240 242 251 267 283 300 306 301 297 297 296 296 296 298 301 304 305 306 308 313 314 314 318 320 317 316 315 311 310 307 303 304 306 306
235 236 236 236 236 235 232 228 226 224 223 223 225 228 229 226 223 218 214 211 204 199 204 209 208 206 206 205 209 216 216 213 215 214 214 223 229 227 235 252 258 252 259 281 298 306 305 301 298 295 293 293 295 298 300 301 303 307 310 313 314 315 317 316 314 315 315 311 309 307 306 308 309 308
237 236 235 235 236 235 230 225 223 222 221 221 222 226 225 222 221 217 211 207 200 197 204 208 207 206 205 203 208 212 204 200 208 210 209 223 236 240 249 263 271 273 281 294 302 304 302 301 298 293 290 290 290 291 294 298 301 306 308 311 314 315 314 313 313 314 315 314 311 309 308 307 305 304
234 234 232 232 234 233 228 222 220 219 219 218 220 223 221 217 216 211 205 202 199 200 205 207 205 207 207 203 207 210 200 200 212 215 215 227 238 245 259 270 277 285 295 303 307 305 301 297 293 291 291 288 285 285 289 294 298 301 305 308 312 313 311 313 314 312 312 313 311 309 307 305 303 301
228 228 228 228 230 229 224 220 217 215 215 215 217 216 213 210 209 206 203 202 202 202 205 205 203 208 207 202 205 209 206 208 216 218 221 232 237 242 257 268 276 281 284 292 301 300 293 289 290 293 295 292 284 281 284 289 294 299 302 304 307 311 312 312 312 312 312 312 311 308 305 303 301 299
226 222 221 221 224 224 220 217 215 214 213 213 212 210 206 204 203 202 204 207 206 202 200 200 202 207 204 201 205 210 211 212 216 219 225 228 226 230 241 249 258 260 253 257 270 275 276 279 283 291 297 295 289 286 286 286 289 294 299 303 304 305 308 311 313 313 312 310 309 308 306 304 301 299
225 222 218 216 218 219 216 212 211 210 210 210 208 206 202 198 196 197 201 204 202 195 192 196 202 203 201 204 209 211 210 210 212 218 225 220 211 214 226 238 250 251 245 245 253 265 277 284 289 297 302 299 296 296 295 289 286 288 294 300 302 302 305 309 312 312 311 309 309 309 307 305 301 299
220 219 215 212 213 214 211 209 209 208 205 203 202 201 199 195 192 193 195 196 195 190 189 194 199 200 203 209 210 207 206 206 207 216 224 220 216 220 229 241 250 248 245 248 248 255 269 279 288 302 309 308 307 310 305 290 284 287 292 298 302 303 304 308 310 312 311 310 310 309 307 305 303 300
217 216 213 211 211 210 208 207 207 205 202 199 197 195 194 192 192 193 195 195 194 191 190 194 200 204 207 209 205 201 200 200 204 217 226 226 230 236 237 242 246 243 243 250 250 252 261 272 288 304 313 312 310 313 312 294 279 280 291 298 301 301 304 308 310 311 312 312 311 308 306 305 304 302
216 215 213 211 210 207 205 205 205 202 200 198 195 192 191 191 193 196 197 195 193 191 190 194 201 206 208 206 201 198 196 196 205 221 227 227 236 243 238 237 240 238 237 244 246 247 257 271 287 299 301 298 294 296 298 293 278 278 291 299 300 301 305 309 311 312 314 315 313 309 306 305 305 304
215 214 213 211 210 207 204 204 203 201 198 197 194 192 191 192 195 199 199 196 191 189 189 193 199 204 204 201 199 197 196 197 206 220 225 225 232 238 233 231 236 235 234 238 237 238 250 262 273 283 289 291 291 290 290 289 290 292 294 297 301 303 305 308 311 314 315 314 312 310 307 305 305 305
212 211 212 211 210 207 204 202 200 197 196 195 193 193 194 196 198 200 199 194 189 187 190 194 197 201 200 196 195 197 197 201 209 218 221 219 220 224 226 228 232 232 230 229 226 228 242 253 259 268 277 282 287 290 290 291 299 303 301 300 302 302 302 307 310 312 313 312 311 310 307 303 303 306
212 209 209 209 209 206 203 200 196 194 193 192 192 193 194 196 198 198 196 193 189 187 191 194 196 198 197 193 193 196 199 206 215 218 217 213 212 217 221 225 228 226 221 220 223 229 239 246 250 257 264 270 278 285 287 288 293 297 299 303 304 299 299 306 311 311 312 312 310 310 309 306 307 312
211 209 208 207 207 205 202 198 194 192 191 191 193 193 192 192 194 193 193 194 193 190 192 194 194 195 194 193 194 198 202 212 218 216 212 211 212 215 219 223 224 218 214 217 221 226 236 243 245 247 252 258 267 274 279 284 290 296 303 309 308 299 296 303 309 310 312 313 312 312 313 313 313 316
206 208 208 206 205 205 201 197 193 191 190 191 192 193 192 192 192 191 193 195 193 191 194 194 192 193 194 193 196 201 208 215 217 213 209 211 212 214 218 220 218 215 213 212 216 224 234 240 240 244 254 264 272 278 283 288 298 308 312 308 304 301 300 302 307 311 315 318 317 315 315 315 314 315
201 204 206 204 203 200 197 193 189 189 191 192 192 192 191 190 189 190 193 193 192 193 194 192 191 193 194 193 197 206 212 214 213 209 208 209 210 212 216 216 216 216 214 211 216 225 230 233 241 256 272 282 286 287 284 284 291 299 299 295 297 301 302 303 308 314 320 322 320 317 315 315 315 315
200 202 203 201 198 195 192 189 187 188 191 193 193 191 189 188 189 192 192 192 193 194 192 190 193 197 194 194 203 209 208 207 206 204 206 206 206 211 217 221 221 218 213 209 212 219 229 242 257 274 285 283 275 270 269 273 282 290 293 294 298 301 302 305 310 315 320 324 324 318 315 315 315 314
198 198 197 195 191 188 186 185 185 185 186 188 190 188 186 186 190 193 191 192 194 194 189 189 196 198 194 196 203 205 202 202 203 202 203 203 203 208 216 221 219 212 208 210 216 223 235 251 267 276 270 260 258 260 265 272 281 287 292 294 295 298 302 306 310 313 318 323 324 318 314 313 311 309
191 191 189 185 181 178 178 181 183 182 181 183 185 185 184 185 188 189 191 194 195 192 187 190 196 197 193 196 200 201 201 202 202 199 200 201 202 207 212 214 212 209 209 212 219 229 239 247 255 258 255 255 257 260 265 272 278 284 290 293 296 299 301 305 309 312 316 319 318 315 314 315 314 315
185 184 180 175 172 173 177 181 181 179 178 180 182 182 184 186 186 187 191 194 193 189 187 190 194 195 197 201 203 201 200 199 197 196 198 200 203 208 211 212 211 212 213 214 216 225 235 244 250 253 253 255 259 262 266 271 276 281 286 291 296 301 303 306 311 315 317 318 318 316 316 317 320 323